Pagina principale
METAR-TAF:

METAR-TAF

Aeroporti :

Wonderboom Airport

Pretoria, Sudafrica

latitudine: 25-39S, longitudine: 028-13E, altezza: 1248 m

Osservazione

Il bollettino è stato emesso 30 minuti fa, alle 17:00 UTC
Vento calmo
Temperature 11°C
Umidità 66%
Pressione 1028 hPa

METAR: FAWB 311700Z AUTO 00000KT //// // ////// 11/05 Q1028

Ora: 19:30 (17:30 UTC)

Previsione

Il bollettino è stato emesso 8 ore e 30 minuti fa, alle 09:00 UTC
Previsione valida dal 31 alle 10 UTC al 31 alle 18 UTC
Vento 3 kt da direzioni variabili
Visibilità 10 km o più
nessuna nube inferiore a 1500 m e nessun cumulonembo

TAF: FAWB 310900Z 3110/3118 VRB03KT CAVOK TX25/3113Z TN08/3118Z

Osservazioni e previsioni meteorologiche di più di 4000 aeroporti (messaggi METAR e TAF).

Le stazioni disponibili sono rappresentate dai dischi gialli e rossi sulla carta.

Puntare il mouse per vedere il nome della stazione.

Clicca sopra per visualizzare le osservazioni e previsioni meteorologiche.

Per cambiare la mappa : fare clic sui pulsanti verdi con una croce nera per ingrandire, il pulsante verde con un trattino per diminuire, o sulla freccia verde per le mappe adiacenti.


METAR-TAF: